Tiempo cada hora Abbiategrasso

Hoy, 22 Octubre, Jueves

Tiempo Temperatura Precipitaciones Viento Presión Humedad
00:00 +15°C° 0 mm 1 mps 757 mmHg 65%
01:00 +15°C° 0 mm 1 mps 757 mmHg 66%
02:00 +15°C° 0 mm 1 mps 756 mmHg 66%
03:00 +15°C° 0 mm 1 mps 756 mmHg 66%
04:00 +15°C° 0 mm 1 mps 756 mmHg 66%
05:00 +15°C° 0 mm 1 mps 756 mmHg 66%
06:00 +15°C° 0 mm 1 mps 756 mmHg 66%
07:00 +15°C° 0 mm 1 mps 756 mmHg 66%
08:00 +15°C° 0 mm 1 mps 756 mmHg 66%
09:00 +15°C° 0 mm 1 mps 757 mmHg 67%
10:00 +14°C° 0 mm 0 mps 757 mmHg 67%
11:00 +14°C° 0 mm 0 mps 756 mmHg 68%
12:00 +15°C° 0 mm 0 mps 756 mmHg 69%
13:00 +15°C° 0 mm 0 mps 756 mmHg 70%
14:00 +14°C° 0 mm 0 mps 756 mmHg 72%
15:00 +15°C° 0 mm 1 mps 756 mmHg 73%
16:00 +15°C° 0 mm 1 mps 756 mmHg 75%
17:00 +15°C° 0 mm 1 mps 756 mmHg 76%
18:00 +15°C° 0 mm 1 mps 756 mmHg 76%
19:00 +15°C° 0 mm 1 mps 756 mmHg 77%
20:00 +15°C° 0 mm 1 mps 756 mmHg 77%
21:00 +15°C° 0 mm 1 mps 756 mmHg 77%
22:00 +14°C° 0 mm 0 mps 756 mmHg 77%
23:00 +14°C° 0 mm 0 mps 756 mmHg 77%

Mañana, 23 Octubre, Viernes

Tiempo Temperatura Precipitaciones Viento Presión Humedad
00:00 +14°C° 0 mm 0 mps 756 mmHg 78%
01:00 +14°C° 0 mm 0 mps 755 mmHg 78%
02:00 +14°C° 0 mm 0 mps 755 mmHg 79%
03:00 +14°C° 0 mm 0 mps 755 mmHg 80%
04:00 +14°C° 0 mm 0 mps 754 mmHg 80%
05:00 +13°C° 0.2 mm 0 mps 754 mmHg 82%
06:00 +13°C° 0.2 mm 0 mps 754 mmHg 83%
07:00 +14°C° 0.2 mm 1 mps 754 mmHg 85%
08:00 +14°C° 0.5 mm 1 mps 754 mmHg 86%
09:00 +14°C° 0.5 mm 1 mps 754 mmHg 87%
10:00 +14°C° 0.5 mm 1 mps 754 mmHg 89%
11:00 +14°C° 0.5 mm 1 mps 753 mmHg 88%
12:00 +14°C° 0.5 mm 1 mps 753 mmHg 88%
13:00 +14°C° 0.5 mm 1 mps 753 mmHg 87%
14:00 +14°C° 0.3 mm 1 mps 753 mmHg 88%
15:00 +14°C° 0.3 mm 1 mps 752 mmHg 88%
16:00 +14°C° 0.3 mm 1 mps 752 mmHg 88%
17:00 +14°C° 0.1 mm 1 mps 752 mmHg 88%
18:00 +14°C° 0.1 mm 1 mps 752 mmHg 89%
19:00 +14°C° 0.1 mm 1 mps 752 mmHg 89%
20:00 +14°C° 0.1 mm 1 mps 752 mmHg 89%
21:00 +13°C° 0.1 mm 0 mps 752 mmHg 89%
22:00 +13°C° 0.1 mm 0 mps 752 mmHg 89%
23:00 +13°C° 0.1 mm 0 mps 752 mmHg 90%

Pasado mañana, 24 Octubre, Sábado

Tiempo Temperatura Precipitaciones Viento Presión Humedad
00:00 +14°C° 0.1 mm 1 mps 752 mmHg 90%
01:00 +14°C° 0.1 mm 1 mps 752 mmHg 90%
02:00 +14°C° 0.1 mm 1 mps 752 mmHg 90%
03:00 +14°C° 0.1 mm 1 mps 752 mmHg 91%
04:00 +14°C° 0.1 mm 1 mps 752 mmHg 91%
05:00 +13°C° 0 mm 1 mps 752 mmHg 91%
06:00 +13°C° 0 mm 1 mps 752 mmHg 91%
07:00 +13°C° 0 mm 1 mps 752 mmHg 92%
08:00 +14°C° 0 mm 1 mps 752 mmHg 86%
09:00 +15°C° 0 mm 1 mps 752 mmHg 81%
10:00 +16°C° 0 mm 1 mps 752 mmHg 75%
11:00 +18°C° 0 mm 1 mps 752 mmHg 70%
12:00 +18°C° 0 mm 0 mps 752 mmHg 65%
13:00 +19°C° 0 mm 0 mps 752 mmHg 60%
14:00 +19°C° 0 mm 0 mps 752 mmHg 60%
15:00 +19°C° 0 mm 0 mps 752 mmHg 59%
16:00 +19°C° 0 mm 0 mps 751 mmHg 59%
17:00 +18°C° 0 mm 0 mps 752 mmHg 64%
18:00 +17°C° 0 mm 0 mps 752 mmHg 69%
19:00 +16°C° 0 mm 0 mps 752 mmHg 74%
20:00 +15°C° 0 mm 0 mps 753 mmHg 76%
21:00 +15°C° 0 mm 0 mps 753 mmHg 78%
22:00 +14°C° 0 mm 0 mps 754 mmHg 81%
23:00 +14°C° 0 mm 0 mps 753 mmHg 81%

, 25 Octubre, Domingo

Tiempo Temperatura Precipitaciones Viento Presión Humedad
00:00 +15°C° 0 mm 1 mps 753 mmHg 82%
01:00 +15°C° 0 mm 1 mps 753 mmHg 83%
02:00 +14°C° 0 mm 1 mps 753 mmHg 83%
03:00 +14°C° 0 mm 1 mps 753 mmHg 83%
04:00 +13°C° 0 mm 0 mps 753 mmHg 83%
05:00 +13°C° 0 mm 0 mps 753 mmHg 82%
06:00 +12°C° 0 mm 0 mps 752 mmHg 82%
07:00 +13°C° 0 mm 1 mps 752 mmHg 82%
08:00 +13°C° 0 mm 0 mps 752 mmHg 78%
09:00 +15°C° 0 mm 0 mps 752 mmHg 73%
10:00 +16°C° 0 mm 0 mps 752 mmHg 69%
11:00 +17°C° 0 mm 0 mps 751 mmHg 67%
12:00 +20°C° 0 mm 1 mps 751 mmHg 65%
13:00 +20°C° 0 mm 1 mps 750 mmHg 62%
14:00 +20°C° 0 mm 1 mps 750 mmHg 63%
15:00 +20°C° 0 mm 1 mps 749 mmHg 64%
16:00 +20°C° 0 mm 1 mps 749 mmHg 65%
17:00 +19°C° 0 mm 1 mps 749 mmHg 70%
18:00 +18°C° 0 mm 1 mps 749 mmHg 75%
19:00 +16°C° 0 mm 1 mps 749 mmHg 80%
20:00 +16°C° 0.1 mm 1 mps 749 mmHg 81%
21:00 +15°C° 0.1 mm 1 mps 749 mmHg 83%
22:00 +15°C° 0.1 mm 1 mps 749 mmHg 84%
23:00 +15°C° 0.2 mm 1 mps 748 mmHg 85%

25 Octubre, Domingo

Tiempo Temperatura Precipitaciones Viento Presión Humedad
00:00 +15°C° 0 mm 1 mps 753 mmHg 82%
01:00 +15°C° 0 mm 1 mps 753 mmHg 83%
02:00 +14°C° 0 mm 1 mps 753 mmHg 83%
03:00 +14°C° 0 mm 1 mps 753 mmHg 83%
04:00 +13°C° 0 mm 0 mps 753 mmHg 83%
05:00 +13°C° 0 mm 0 mps 753 mmHg 82%
06:00 +12°C° 0 mm 0 mps 752 mmHg 82%
07:00 +13°C° 0 mm 1 mps 752 mmHg 82%
08:00 +13°C° 0 mm 0 mps 752 mmHg 78%
09:00 +15°C° 0 mm 0 mps 752 mmHg 73%
10:00 +16°C° 0 mm 0 mps 752 mmHg 69%
11:00 +17°C° 0 mm 0 mps 751 mmHg 67%
12:00 +20°C° 0 mm 1 mps 751 mmHg 65%
13:00 +20°C° 0 mm 1 mps 750 mmHg 62%
14:00 +20°C° 0 mm 1 mps 750 mmHg 63%
15:00 +20°C° 0 mm 1 mps 749 mmHg 64%
16:00 +20°C° 0 mm 1 mps 749 mmHg 65%
17:00 +19°C° 0 mm 1 mps 749 mmHg 70%
18:00 +18°C° 0 mm 1 mps 749 mmHg 75%
19:00 +16°C° 0 mm 1 mps 749 mmHg 80%
20:00 +16°C° 0.1 mm 1 mps 749 mmHg 81%
21:00 +15°C° 0.1 mm 1 mps 749 mmHg 83%
22:00 +15°C° 0.1 mm 1 mps 749 mmHg 84%
23:00 +15°C° 0.2 mm 1 mps 748 mmHg 85%

26 Octubre, Lunes

Tiempo Temperatura Precipitaciones Viento Presión Humedad
00:00 +14°C° 0.2 mm 1 mps 748 mmHg 86%
01:00 +14°C° 0.2 mm 1 mps 747 mmHg 87%
02:00 +14°C° 0.1 mm 1 mps 747 mmHg 87%
03:00 +14°C° 0.1 mm 1 mps 746 mmHg 88%
04:00 +13°C° 0.1 mm 1 mps 745 mmHg 89%
05:00 +13°C° 0.3 mm 1 mps 745 mmHg 88%
06:00 +14°C° 0.3 mm 2 mps 745 mmHg 87%
07:00 +14°C° 0.3 mm 2 mps 744 mmHg 86%
08:00 +13°C° 3.7 mm 3 mps 744 mmHg 87%
09:00 +13°C° 3.7 mm 3 mps 744 mmHg 88%
10:00 +12°C° 3.7 mm 3 mps 743 mmHg 89%
11:00 +13°C° 2.8 mm 4 mps 743 mmHg 89%
12:00 +13°C° 2.8 mm 4 mps 743 mmHg 89%
13:00 +13°C° 2.8 mm 5 mps 743 mmHg 88%
14:00 +13°C° 1.7 mm 5 mps 742 mmHg 87%
15:00 +13°C° 1.7 mm 5 mps 742 mmHg 86%
16:00 +13°C° 1.7 mm 5 mps 742 mmHg 84%
17:00 +13°C° 1.1 mm 4 mps 742 mmHg 84%
18:00 +12°C° 1.1 mm 4 mps 742 mmHg 84%
19:00 +12°C° 1.1 mm 3 mps 742 mmHg 84%
20:00 +12°C° 0.8 mm 3 mps 742 mmHg 83%
21:00 +12°C° 0.8 mm 3 mps 743 mmHg 82%
22:00 +12°C° 0.8 mm 3 mps 743 mmHg 82%
23:00 +11°C° 0.6 mm 3 mps 743 mmHg 80%

27 Octubre, Martes

Tiempo Temperatura Precipitaciones Viento Presión Humedad
00:00 +11°C° 0.6 mm 3 mps 743 mmHg 78%
01:00 +11°C° 0.6 mm 3 mps 743 mmHg 76%
02:00 +10°C° 0.7 mm 3 mps 743 mmHg 78%
03:00 +10°C° 0.7 mm 4 mps 743 mmHg 79%
04:00 +10°C° 0.7 mm 4 mps 743 mmHg 80%
05:00 +10°C° 1.3 mm 3 mps 744 mmHg 82%
06:00 +10°C° 1.3 mm 3 mps 744 mmHg 83%
07:00 +9°C° 1.3 mm 2 mps 745 mmHg 84%
08:00 +10°C° 1.1 mm 2 mps 745 mmHg 83%
09:00 +10°C° 1.1 mm 2 mps 745 mmHg 83%
10:00 +10°C° 1.1 mm 2 mps 745 mmHg 82%
11:00 +10°C° 0.5 mm 2 mps 745 mmHg 80%
12:00 +12°C° 0.5 mm 2 mps 745 mmHg 78%
13:00 +12°C° 0.5 mm 1 mps 745 mmHg 75%
14:00 +12°C° 0.1 mm 1 mps 746 mmHg 75%
15:00 +12°C° 0.1 mm 1 mps 746 mmHg 74%
16:00 +12°C° 0.1 mm 1 mps 746 mmHg 74%
17:00 +12°C° 0 mm 1 mps 747 mmHg 75%
18:00 +12°C° 0 mm 1 mps 747 mmHg 76%
19:00 +12°C° 0 mm 1 mps 748 mmHg 77%
20:00 +11°C° 0 mm 1 mps 748 mmHg 78%
21:00 +11°C° 0 mm 1 mps 748 mmHg 80%
22:00 +11°C° 0 mm 1 mps 749 mmHg 81%
23:00 +10°C° 0 mm 1 mps 749 mmHg 81%
Mostrar más

Necesitamos Su Consentimiento

Meteoprog y nuestros Proveedores de Servicios pueden almacenar y acceder a sus datos personales como cookies, identificadores de dispositivo u otras tecnologías similares de su dispositivo y procesar dichos datos para personalizar contenido y anuncios, además de ofrecer funciones de redes sociales y analizar el tráfico.

  • Almacenar y/o acceder a información en su dispositivo

    Se puede almacenar o acceder a cookies, identificadores de dispositivo u otra información de su dispositivo para los fines anteriormente indicados.

  • Anuncios y contenido personalizados, medición de anuncios y contenido, percepciones del público, y desarrollo de productos

    Los anuncios y el contenido pueden personalizarse en base a su perfil. Se pueden añadir más datos para personalizar mejor los anuncios y contenidos. Se puede medir el rendimiento de los anuncios y contenidos. Se puede obtener la percepción sobre el público que ha visto los anuncios y contenidos. Dichos datos pueden usarse para desarrollar o mejorar la experiencia del usuario, sistemas y software.

Al hacer clic en ‘Estoy De Acuerdo’ usted permitirá el uso de las cookies, identificadores de dispositivo, balizas web u otras tecnologías similares indicadas. Su configuración puede cambiarse desde el navegador de su dispositivo.

Para ciertos fines, los intereses legítimos pueden ser considerados por encima del consentimiento. Puede leer más sobre ello en nuestra Política de Privacidad y Cookies.